Skip Page Navigation
NASA JPL Caltech
NASA Logo - Jet Propulsion Laboratory + View the NASA Portal
+ Center for Near-Earth Object Studies
JPL Home Earth Solar System Stars & Galaxies Technology
JPL Solar System Dynamics
BODIES ORBITS EPHEMERIDES TOOLS PHYSICAL DATA DISCOVERY FAQ SITE MAP

Significant website upgrade scheduled for September 27. More details available here.

JPL Small-Body Database Browser
Search: [ help ]  
1858 Lobachevskij (1972 QL)
Classification: Main-belt Asteroid          SPK-ID: 2001858
Ephemeris | Orbit Diagram | Orbital Elements | Mission Design | Physical Parameters | Discovery Circumstances ]

[ hide orbit diagram ]

For accurate long-term ephemerides, please instead use our Horizons system.This orbit viewer was implemented using two-body methods, and hence should not be used for determining accurate long-term trajectories (over several years or decades) or planetary encounter circumstances.


Orbital Elements at Epoch 2459396.5 (2021-Jul-01.0) TDB
Reference: JPL 42 (heliocentric ecliptic J2000)
 Element Value Uncertainty (1-sigma)   Units 
e .07894310542407142 1.7817e-08  
a 2.699373891244696 8.6803e-09 au
q 2.48627693356918 5.0659e-08 au
i 1.659265355755712 3.3727e-07 deg
node 271.8500293468109 2.751e-05 deg
peri 17.04794311255223 3.2065e-05 deg
M 49.24551266799797 9.3857e-06 deg
tp 2459174.906430334159
(2020-Nov-21.40643033)
4.246e-05 TDB
period 1619.91785155165
4.44
7.8137e-06
2.139e-08
d
yr
n .2222334914422799 1.0719e-09 deg/d
Q 2.912470848920212 9.3655e-09 au
  Orbit Determination Parameters
   # obs. used (total)      3281  
   data-arc span      31091 days (85.12 yr)  
   first obs. used      1936-06-24  
   last obs. used      2021-08-08  
   planetary ephem.      DE441  
   SB-pert. ephem.      SB441-N16  
   condition code      0  
   norm. resid. RMS      .42283  
   source      ORB  
   producer      Otto Matic  
   solution date      2021-Aug-25 08:08:11  

Additional Information
 Earth MOID = 1.46966 au 
 Jupiter MOID = 2.19847 au 
 T_jup = 3.363 
[ show covariance matrix ]

Ephemeris | Orbit Diagram | Orbital Elements | Mission Design | Physical Parameters | Discovery Circumstances ]

Physical Parameter Table
Parameter Symbol Value Units Sigma Reference Notes
absolute magnitude H 12.06   n/a E2021B10  
diameter diameter 10.769 km 0.189 urn:nasa:pds:neowise_diameters_albedos::2.0[mainbelt] (http://adsabs.harvard.edu/abs/2014ApJ...791..121M)  
rotation period rot_per 5.413 h n/a LCDB (Rev. 2020-October); Warner et al., 2009 Result based on less than full coverage, so that the period may be wrong by 30 percent or so.
Published Reference List:
[Ditteon, R.; Horn, L.; Kamperman, A.; Vorjohan, B.; Kirkpatrick, E. (2012) Minor Planet Bull. 39, 26-28.]
[Waszczak, A.; Chang, C.-K.; Ofeck, E.O.; Laher, F.; et al. (2015) Astron. J. 150, A75.]
[Durech, J.; Hanus, J.; Oszkiewsicz, D.; Vanco, R. (2016) Astron. Astrophys. 587, A48.]
geometric albedo albedo 0.383   0.055 urn:nasa:pds:neowise_diameters_albedos::2.0[mainbelt] (http://adsabs.harvard.edu/abs/2014ApJ...791..121M)  
SMASSII spectral type spec_B L   n/a EAR-A-5-DDR-TAXONOMY-V4.0 based on a high-resolution spectrum by Xu et al. (1995) or Bus and Binzel (2002)

1858 Lobachevskij (1972 QL)          Discovered 1972-Aug-18 by Zhuravleva, L. at Nauchnyj
Reference: DISCOVERY.DBLast Updated: 2003-08-29

Alternate Designations
 1972 QL = 1928 SG = 1936 MH = 1955 VW = 1957 BM = 1964 YC 
Ephemeris | Orbit Diagram | Orbital Elements | Mission Design | Physical Parameters | Discovery Circumstances ]
ABOUT SSD CREDITS/AWARDS PRIVACY/COPYRIGHT GLOSSARY LINKS
FirstGov 2021-Sep-21 16:39 UT
(server date/time)  
NASA Home Page
Site Manager:   Ryan S. Park
Webmaster  Alan B. Chamberlin